| time (UTC) | temp F | wind direction | speed MPH | gust MPH | rain 1hr in | rain 24hr in | rain mn in | humidity % | barometer mb |
| 20260505092727 | 52 | 259 | 3.0 | 7.0 | 0.00 | 0.00 | 0.00 | 84 | 1011.7 |
| 20260505092231 | 52 | 231 | 4.0 | 7.0 | 0.00 | 0.00 | 0.00 | 84 | 1011.6 |
| 20260505091725 | 52 | 251 | 4.0 | 7.0 | 0.00 | 0.00 | 0.00 | 83 | 1011.7 |
| 20260505091457 | 52 | 247 | 3.0 | 8.0 | 0.00 | 0.00 | 0.00 | 83 | 1011.8 |
| 20260505090954 | 52 | 243 | 4.0 | 8.0 | 0.00 | 0.00 | 0.00 | 84 | 1011.8 |
| 20260505090215 | 52 | 248 | 3.0 | 7.0 | 0.00 | 0.00 | 0.00 | 83 | 1011.7 |
| 20260505085708 | 52 | 239 | 3.0 | 7.0 | 0.00 | 0.00 | 0.00 | 84 | 1011.7 |
| 20260505085210 | 52 | 241 | 3.0 | 6.0 | 0.00 | 0.00 | 0.00 | 83 | 1011.7 |
| 20260505084702 | 52 | 233 | 3.0 | 6.0 | 0.00 | 0.00 | 0.00 | 83 | 1011.6 |
| 20260505084203 | 52 | 244 | 3.0 | 6.0 | 0.00 | 0.00 | 0.00 | 83 | 1011.7 |
| 20260505083658 | 52 | 238 | 3.0 | 6.0 | 0.00 | 0.00 | 0.00 | 83 | 1011.6 |
| 20260505083159 | 52 | 241 | 4.0 | 6.0 | 0.00 | 0.00 | 0.00 | 83 | 1011.7 |
| 20260505082651 | 52 | 239 | 3.0 | 6.0 | 0.00 | 0.00 | 0.00 | 83 | 1011.7 |
| 20260505082418 | 52 | 254 | 3.0 | 6.0 | 0.00 | 0.00 | 0.00 | 83 | 1011.7 |
| 20260505081912 | 52 | 245 | 3.0 | 6.0 | 0.00 | 0.00 | 0.00 | 82 | 1011.7 |
| 20260505081142 | 52 | 231 | 4.0 | 6.0 | 0.00 | 0.00 | 0.00 | 82 | 1011.8 |
| 20260505080636 | 52 | 240 | 3.0 | 5.0 | 0.00 | 0.00 | 0.00 | 82 | 1011.9 |
| 20260505080131 | 52 | 232 | 4.0 | 5.0 | 0.00 | 0.00 | 0.00 | 82 | 1011.9 |
| 20260505075631 | 52 | 234 | 3.0 | 5.0 | 0.00 | 0.00 | 0.00 | 82 | 1011.9 |
| 20260505075118 | 52 | 214 | 3.0 | 6.0 | 0.00 | 0.00 | 0.00 | 81 | 1011.8 |
| 20260505074611 | 53 | 255 | 3.0 | 7.0 | 0.00 | 0.00 | 0.00 | 81 | 1011.8 |
| 20260505074105 | 52 | 245 | 4.0 | 7.0 | 0.00 | 0.00 | 0.00 | 81 | 1011.9 |
| 20260505073602 | 52 | 233 | 4.0 | 7.0 | 0.00 | 0.00 | 0.00 | 81 | 1011.9 |
| 20260505073047 | 52 | 246 | 3.0 | 7.0 | 0.00 | 0.00 | 0.00 | 81 | 1012.0 |
| 20260505072548 | 53 | 203 | 4.0 | 7.0 | 0.00 | 0.00 | 0.00 | 81 | 1012.0 |
| 20260505072045 | 53 | 251 | 3.0 | 6.0 | 0.00 | 0.00 | 0.00 | 80 | 1011.9 |
| 20260505071543 | 53 | 248 | 2.0 | 6.0 | 0.00 | 0.00 | 0.00 | 80 | 1012.0 |
| 20260505071039 | 53 | 244 | 3.0 | 7.0 | 0.00 | 0.00 | 0.00 | 80 | 1012.0 |
| 20260505070532 | 53 | 243 | 4.0 | 7.0 | 0.00 | 0.00 | 0.00 | 80 | 1012.0 |
| 20260505070027 | 53 | 245 | 4.0 | 6.0 | 0.00 | 0.00 | 0.00 | 79 | 1012.1 |
| 20260505065519 | 53 | 250 | 3.0 | 6.0 | 0.00 | 0.00 | 0.00 | 79 | 1012.0 |
| 20260505065300 | 53 | 241 | 3.0 | 7.0 | 0.00 | 0.00 | 0.00 | 79 | 1012.1 |
| 20260505064515 | 53 | 253 | 4.0 | 7.0 | 0.00 | 0.00 | 0.00 | 79 | 1012.1 |
| 20260505064241 | 53 | 242 | 3.0 | 6.0 | 0.00 | 0.00 | 0.00 | 79 | 1012.1 |
| 20260505063512 | 53 | 242 | 3.0 | 7.0 | 0.00 | 0.00 | 0.00 | 78 | 1012.0 |
| 20260505063008 | 53 | 243 | 3.0 | 8.0 | 0.00 | 0.00 | 0.00 | 78 | 1012.0 |
| 20260505062736 | 53 | 242 | 4.0 | 8.0 | 0.00 | 0.00 | 0.00 | 78 | 1012.1 |
| 20260505062008 | 53 | 253 | 4.0 | 8.0 | 0.00 | 0.00 | 0.00 | 78 | 1012.0 |
| 20260505061517 | 53 | 241 | 4.0 | 8.0 | 0.00 | 0.00 | 0.00 | 78 | 1012.0 |
| 20260505061004 | 53 | 246 | 4.0 | 8.0 | 0.00 | 0.00 | 0.00 | 78 | 1012.1 |
| 20260505060459 | 53 | 221 | 4.0 | 6.0 | 0.00 | 0.00 | 0.00 | 78 | 1012.1 |
| 20260505055954 | 53 | 256 | 4.0 | 7.0 | 0.00 | 0.00 | 0.00 | 77 | 1012.1 |
| 20260505055446 | 53 | 249 | 4.0 | 7.0 | 0.00 | 0.00 | 0.00 | 77 | 1012.1 |
| 20260505054942 | 53 | 248 | 4.0 | 7.0 | 0.00 | 0.00 | 0.00 | 77 | 1012.0 |
| 20260505054435 | 53 | 250 | 4.0 | 7.0 | 0.00 | 0.00 | 0.00 | 77 | 1012.0 |
| 20260505053929 | 53 | 233 | 4.0 | 7.0 | 0.00 | 0.00 | 0.00 | 77 | 1012.0 |
| 20260505053441 | 54 | 243 | 4.0 | 7.0 | 0.00 | 0.00 | 0.00 | 76 | 1012.0 |
| 20260505053434 | 53 | 251 | 4.0 | 7.0 | 0.00 | 0.00 | 0.00 | 76 | 1012.0 |
| 20260505052649 | 54 | 248 | 4.0 | 8.0 | 0.00 | 0.00 | 0.00 | 76 | 1012.0 |
| 20260505051914 | 54 | 238 | 4.0 | 10.0 | 0.00 | 0.00 | 0.00 | 76 | 1012.0 |
| 20260505051413 | 54 | 248 | 4.0 | 10.0 | 0.00 | 0.00 | 0.00 | 75 | 1012.0 |
| 20260505050909 | 54 | 253 | 4.0 | 8.0 | 0.00 | 0.00 | 0.00 | 75 | 1012.1 |
| 20260505050412 | 54 | 245 | 5.0 | 9.0 | 0.00 | 0.00 | 0.00 | 75 | 1012.2 |
| 20260505041332 | 54 | 241 | 4.0 | 9.0 | 0.00 | 0.00 | 0.00 | 75 | 1012.2 |
| 20260505040829 | 54 | 234 | 4.0 | 9.0 | 0.00 | 0.00 | 0.00 | 75 | 1012.2 |
| 20260505040325 | 54 | 242 | 5.0 | 7.0 | 0.00 | 0.00 | 0.00 | 74 | 1012.1 |
| 20260505035823 | 54 | 246 | 4.0 | 7.0 | 0.00 | 0.00 | 0.00 | 74 | 1012.1 |
| 20260505035319 | 54 | 255 | 4.0 | 7.0 | 0.00 | 0.00 | 0.00 | 74 | 1012.1 |
| 20260505034814 | 54 | 246 | 3.0 | 7.0 | 0.00 | 0.00 | 0.00 | 74 | 1012.2 |
| 20260505034313 | 54 | 264 | 5.0 | 7.0 | 0.00 | 0.00 | 0.00 | 75 | 1012.2 |
| 20260505033809 | 54 | 254 | 4.0 | 9.0 | 0.00 | 0.00 | 0.00 | 74 | 1012.1 |
| 20260505033550 | 54 | 243 | 4.0 | 9.0 | 0.00 | 0.00 | 0.00 | 74 | 1012.2 |
| 20260505033034 | 54 | 236 | 4.0 | 7.0 | 0.00 | 0.00 | 0.00 | 74 | 1012.2 |
| 20260505032304 | 54 | 244 | 5.0 | 8.0 | 0.00 | 0.00 | 0.00 | 74 | 1012.2 |
| 20260505031759 | 54 | 266 | 4.0 | 8.0 | 0.00 | 0.00 | 0.00 | 74 | 1012.2 |
| 20260505031251 | 55 | 259 | 5.0 | 8.0 | 0.00 | 0.00 | 0.00 | 74 | 1012.3 |
| 20260505030751 | 55 | 255 | 5.0 | 8.0 | 0.00 | 0.00 | 0.00 | 74 | 1012.2 |
| 20260505030747 | 54 | 266 | 4.0 | 8.0 | 0.00 | 0.00 | 0.00 | 74 | 1012.3 |
| 20260505025736 | 55 | 250 | 5.0 | 8.0 | 0.00 | 0.00 | 0.00 | 73 | 1012.2 |
| 20260505025230 | 55 | 243 | 5.0 | 8.0 | 0.00 | 0.00 | 0.00 | 74 | 1012.2 |
| 20260505024725 | 55 | 242 | 4.0 | 9.0 | 0.00 | 0.00 | 0.00 | 73 | 1012.2 |
| 20260505024448 | 55 | 245 | 5.0 | 9.0 | 0.00 | 0.00 | 0.00 | 73 | 1012.2 |
| 20260505023712 | 55 | 255 | 5.0 | 8.0 | 0.00 | 0.00 | 0.00 | 73 | 1012.0 |
| 20260505023212 | 55 | 252 | 5.0 | 8.0 | 0.00 | 0.00 | 0.00 | 73 | 1012.2 |
| 20260505022706 | 55 | 242 | 6.0 | 9.0 | 0.00 | 0.00 | 0.00 | 73 | 1012.3 |
| 20260505022207 | 55 | 248 | 5.0 | 10.0 | 0.00 | 0.00 | 0.00 | 73 | 1012.2 |
| 20260505021704 | 55 | 244 | 5.0 | 10.0 | 0.00 | 0.00 | 0.00 | 73 | 1012.3 |
| 20260505021202 | 55 | 258 | 4.0 | 9.0 | 0.00 | 0.00 | 0.00 | 72 | 1012.2 |
| 20260505020655 | 55 | 239 | 6.0 | 9.0 | 0.00 | 0.00 | 0.00 | 72 | 1012.2 |
| 20260505020153 | 55 | 232 | 5.0 | 9.0 | 0.00 | 0.00 | 0.00 | 72 | 1012.2 |
| 20260505015645 | 56 | 238 | 4.0 | 10.0 | 0.00 | 0.00 | 0.00 | 72 | 1012.2 |
| 20260505015145 | 56 | 240 | 5.0 | 10.0 | 0.00 | 0.00 | 0.00 | 71 | 1012.2 |
| 20260505015138 | 56 | 233 | 6.0 | 10.0 | 0.00 | 0.00 | 0.00 | 71 | 1012.2 |
| 20260505014125 | 56 | 239 | 5.0 | 10.0 | 0.00 | 0.00 | 0.00 | 70 | 1012.2 |
| 20260505013623 | 56 | 238 | 5.0 | 9.0 | 0.00 | 0.00 | 0.00 | 70 | 1012.0 |
| 20260505013123 | 56 | 245 | 5.0 | 8.0 | 0.00 | 0.00 | 0.00 | 69 | 1012.0 |
| 20260505012617 | 56 | 280 | 4.0 | 8.0 | 0.00 | 0.00 | 0.00 | 69 | 1012.0 |
| 20260505012109 | 56 | 243 | 4.0 | 9.0 | 0.00 | 0.00 | 0.00 | 68 | 1011.8 |
| 20260505011610 | 57 | 244 | 5.0 | 9.0 | 0.00 | 0.00 | 0.00 | 67 | 1011.8 |
| 20260505011118 | 57 | 273 | 4.0 | 11.0 | 0.00 | 0.00 | 0.00 | 65 | 1011.6 |
| 20260505011113 | 57 | 252 | 5.0 | 8.0 | 0.00 | 0.00 | 0.00 | 67 | 1011.7 |
| 20260505010100 | 57 | 254 | 5.0 | 14.0 | 0.00 | 0.00 | 0.00 | 65 | 1011.5 |
| 20260505005603 | 57 | 234 | 5.0 | 14.0 | 0.00 | 0.00 | 0.00 | 64 | 1011.2 |
| 20260505005057 | 58 | 254 | 5.0 | 13.0 | 0.00 | 0.00 | 0.00 | 63 | 1011.1 |
| 20260505004552 | 58 | 242 | 5.0 | 12.0 | 0.00 | 0.00 | 0.00 | 62 | 1010.9 |
| 20260505004044 | 58 | 254 | 5.0 | 11.0 | 0.00 | 0.00 | 0.00 | 61 | 1010.8 |
| 20260505003538 | 58 | 226 | 4.0 | 11.0 | 0.00 | 0.00 | 0.00 | 60 | 1010.8 |
| 20260505003324 | 58 | 213 | 6.0 | 15.0 | 0.00 | 0.00 | 0.00 | 60 | 1010.6 |
| 20260505002525 | 58 | 176 | 6.0 | 15.0 | 0.00 | 0.00 | 0.00 | 58 | 1010.5 |
| 20260505002024 | 59 | 255 | 5.0 | 11.0 | 0.00 | 0.00 | 0.00 | 57 | 1010.5 |
| 20260505001514 | 59 | 236 | 6.0 | 11.0 | 0.00 | 0.00 | 0.00 | 56 | 1010.4 |
| 20260505001014 | 59 | 227 | 6.0 | 11.0 | 0.00 | 0.00 | 0.00 | 55 | 1010.4 |
| 20260505000504 | 59 | 259 | 6.0 | 10.0 | 0.00 | 0.00 | 0.00 | 55 | 1010.3 |
| 20260505000000 | 60 | 247 | 5.0 | 10.0 | 0.00 | 0.00 | 0.00 | 55 | 1010.3 |
| 20260504235454 | 60 | 262 | 6.0 | 13.0 | 0.00 | 0.00 | 0.00 | 54 | 1010.2 |
| 20260504234945 | 60 | 243 | 6.0 | 13.0 | 0.00 | 0.00 | 0.00 | 54 | 1010.1 |
| 20260504234444 | 60 | 242 | 5.0 | 11.0 | 0.00 | 0.00 | 0.00 | 54 | 1010.2 |
| 20260504233941 | 60 | 189 | 5.0 | 11.0 | 0.00 | 0.00 | 0.00 | 54 | 1010.1 |
| 20260504233442 | 60 | 243 | 5.0 | 11.0 | 0.00 | 0.00 | 0.00 | 53 | 1010.0 |
| 20260504232937 | 61 | 222 | 4.0 | 11.0 | 0.00 | 0.00 | 0.00 | 52 | 1010.0 |
| 20260504232437 | 61 | 224 | 4.0 | 12.0 | 0.00 | 0.00 | 0.00 | 52 | 1009.9 |
| 20260504231930 | 62 | 173 | 5.0 | 12.0 | 0.00 | 0.00 | 0.00 | 50 | 1009.9 |
| 20260504231710 | 62 | 243 | 4.0 | 12.0 | 0.00 | 0.00 | 0.00 | 51 | 1009.8 |
| 20260504230940 | 62 | 238 | 7.0 | 12.0 | 0.00 | 0.00 | 0.00 | 50 | 1009.7 |
| 20260504230425 | 62 | 214 | 6.0 | 16.0 | 0.00 | 0.00 | 0.00 | 50 | 1009.5 |
| 20260504225922 | 63 | 238 | 6.0 | 16.0 | 0.00 | 0.00 | 0.00 | 50 | 1009.5 |
| 20260504225431 | 63 | 219 | 6.0 | 14.0 | 0.00 | 0.00 | 0.00 | 49 | 1009.4 |
| 20260504225427 | 63 | 249 | 7.0 | 14.0 | 0.00 | 0.00 | 0.00 | 49 | 1009.5 |
| 20260504224646 | 64 | 256 | 5.0 | 14.0 | 0.00 | 0.00 | 0.00 | 49 | 1009.2 |
| 20260504223904 | 64 | 228 | 6.0 | 13.0 | 0.00 | 0.00 | 0.00 | 49 | 1009.2 |
| 20260504223358 | 64 | 226 | 6.0 | 13.0 | 0.00 | 0.00 | 0.00 | 49 | 1009.0 |
| 20260504222859 | 64 | 235 | 6.0 | 13.0 | 0.00 | 0.00 | 0.00 | 49 | 1009.1 |
| 20260504222352 | 65 | 181 | 6.0 | 22.0 | 0.00 | 0.00 | 0.00 | 49 | 1008.9 |
| 20260504221852 | 65 | 245 | 9.0 | 22.0 | 0.00 | 0.00 | 0.00 | 48 | 1008.9 |
| 20260504221350 | 65 | 254 | 5.0 | 12.0 | 0.00 | 0.00 | 0.00 | 47 | 1008.8 |
| 20260504220841 | 65 | 250 | 6.0 | 11.0 | 0.00 | 0.00 | 0.00 | 47 | 1008.9 |
| 20260504220336 | 66 | 227 | 6.0 | 12.0 | 0.00 | 0.00 | 0.00 | 46 | 1008.8 |
| 20260504215830 | 66 | 248 | 7.0 | 13.0 | 0.00 | 0.00 | 0.00 | 45 | 1008.9 |
| 20260504215325 | 66 | 236 | 6.0 | 13.0 | 0.00 | 0.00 | 0.00 | 45 | 1008.9 |
| 20260504214826 | 66 | 193 | 6.0 | 11.0 | 0.00 | 0.00 | 0.00 | 45 | 1008.9 |
| 20260504214319 | 66 | 247 | 6.0 | 11.0 | 0.00 | 0.00 | 0.00 | 45 | 1008.9 |
| 20260504213819 | 66 | 238 | 7.0 | 10.0 | 0.00 | 0.00 | 0.00 | 44 | 1008.9 |
| 20260504213315 | 67 | 263 | 6.0 | 13.0 | 0.00 | 0.00 | 0.00 | 43 | 1008.8 |
| 20260504212809 | 67 | 236 | 6.0 | 15.0 | 0.00 | 0.00 | 0.00 | 43 | 1008.8 |
| 20260504212309 | 67 | 207 | 6.0 | 17.0 | 0.00 | 0.00 | 0.00 | 44 | 1008.8 |
| 20260504211804 | 67 | 218 | 6.0 | 18.0 | 0.00 | 0.00 | 0.00 | 42 | 1008.7 |
| 20260504211257 | 68 | 246 | 6.0 | 18.0 | 0.00 | 0.00 | 0.00 | 40 | 1008.8 |
| 20260504210757 | 67 | 245 | 7.0 | 13.0 | 0.00 | 0.00 | 0.00 | 40 | 1008.7 |
| 20260504210253 | 68 | 249 | 6.0 | 13.0 | 0.00 | 0.00 | 0.00 | 40 | 1008.7 |
| 20260504205753 | 68 | 230 | 6.0 | 12.0 | 0.00 | 0.00 | 0.00 | 41 | 1008.7 |
| 20260504205249 | 68 | 226 | 5.0 | 15.0 | 0.00 | 0.00 | 0.00 | 40 | 1008.7 |
| 20260504205028 | 68 | 271 | 7.0 | 15.0 | 0.00 | 0.00 | 0.00 | 41 | 1008.6 |
| 20260504204242 | 68 | 224 | 6.0 | 11.0 | 0.00 | 0.00 | 0.00 | 40 | 1008.6 |
| 20260504203750 | 68 | 240 | 6.0 | 10.0 | 0.00 | 0.00 | 0.00 | 38 | 1008.6 |
| 20260504203744 | 68 | 235 | 6.0 | 11.0 | 0.00 | 0.00 | 0.00 | 40 | 1008.6 |
| 20260504203008 | 68 | 262 | 6.0 | 11.0 | 0.00 | 0.00 | 0.00 | 38 | 1008.5 |
| 20260504202226 | 68 | 246 | 6.0 | 12.0 | 0.00 | 0.00 | 0.00 | 38 | 1008.5 |
| 20260504201720 | 68 | 259 | 8.0 | 12.0 | 0.00 | 0.00 | 0.00 | 37 | 1008.5 |
| 20260504201215 | 69 | 257 | 5.0 | 11.0 | 0.00 | 0.00 | 0.00 | 38 | 1008.5 |
| 20260504200708 | 69 | 228 | 7.0 | 13.0 | 0.00 | 0.00 | 0.00 | 37 | 1008.7 |
| 20260504200204 | 69 | 231 | 7.0 | 13.0 | 0.00 | 0.00 | 0.00 | 39 | 1008.7 |
| 20260504195656 | 69 | 248 | 8.0 | 19.0 | 0.00 | 0.00 | 0.00 | 39 | 1008.6 |
| 20260504195156 | 69 | 262 | 9.0 | 19.0 | 0.00 | 0.00 | 0.00 | 38 | 1008.5 |
| 20260504194653 | 69 | 219 | 5.0 | 16.0 | 0.00 | 0.00 | 0.00 | 39 | 1008.6 |
| 20260504194149 | 69 | 221 | 7.0 | 15.0 | 0.00 | 0.00 | 0.00 | 37 | 1008.5 |
| 20260504193645 | 70 | 231 | 8.0 | 15.0 | 0.00 | 0.00 | 0.00 | 36 | 1008.6 |
| 20260504193141 | 71 | 231 | 6.0 | 10.0 | 0.00 | 0.00 | 0.00 | 35 | 1008.4 |
| 20260504192637 | 71 | 243 | 5.0 | 12.0 | 0.00 | 0.00 | 0.00 | 32 | 1008.7 |
| 20260504192414 | 71 | 230 | 6.0 | 16.0 | 0.00 | 0.00 | 0.00 | 31 | 1008.6 |
| 20260504191631 | 71 | 258 | 5.0 | 16.0 | 0.00 | 0.00 | 0.00 | 32 | 1008.6 |
| 20260504191159 | 71 | 199 | 5.0 | 13.0 | 0.00 | 0.00 | 0.00 | 31 | 1008.7 |
| 20260504191148 | 71 | 258 | 8.0 | 14.0 | 0.00 | 0.00 | 0.00 | 31 | 1008.6 |
| 20260504190353 | 71 | 297 | 7.0 | 13.0 | 0.00 | 0.00 | 0.00 | 32 | 1008.6 |
| 20260504185621 | 71 | 240 | 6.0 | 12.0 | 0.00 | 0.00 | 0.00 | 31 | 1008.7 |
| 20260504185114 | 71 | 262 | 7.0 | 16.0 | 0.00 | 0.00 | 0.00 | 30 | 1008.7 |
| 20260504184842 | 71 | 274 | 7.0 | 17.0 | 0.00 | 0.00 | 0.00 | 32 | 1008.7 |
| 20260504184104 | 71 | 260 | 7.0 | 17.0 | 0.00 | 0.00 | 0.00 | 32 | 1008.6 |
| 20260504183835 | 71 | 308 | 7.0 | 13.0 | 0.00 | 0.00 | 0.00 | 32 | 1008.7 |
| 20260504183057 | 71 | 231 | 4.0 | 13.0 | 0.00 | 0.00 | 0.00 | 34 | 1008.7 |
| 20260504182554 | 71 | 202 | 5.0 | 12.0 | 0.00 | 0.00 | 0.00 | 32 | 1008.7 |
| 20260504182054 | 71 | 243 | 7.0 | 11.0 | 0.00 | 0.00 | 0.00 | 31 | 1008.8 |
| 20260504181548 | 71 | 244 | 4.0 | 12.0 | 0.00 | 0.00 | 0.00 | 32 | 1008.8 |
| 20260504181043 | 70 | 240 | 7.0 | 12.0 | 0.00 | 0.00 | 0.00 | 31 | 1008.8 |
| 20260504180543 | 70 | 255 | 5.0 | 11.0 | 0.00 | 0.00 | 0.00 | 32 | 1009.1 |
| 20260504180036 | 70 | 250 | 6.0 | 16.0 | 0.00 | 0.00 | 0.00 | 32 | 1009.2 |
| 20260504175534 | 71 | 241 | 7.0 | 16.0 | 0.00 | 0.00 | 0.00 | 30 | 1009.1 |
| 20260504175027 | 70 | 243 | 8.0 | 15.0 | 0.00 | 0.00 | 0.00 | 30 | 1009.0 |
| 20260504174755 | 71 | 232 | 6.0 | 13.0 | 0.00 | 0.00 | 0.00 | 33 | 1009.0 |
| 20260504174019 | 70 | 237 | 5.0 | 13.0 | 0.00 | 0.00 | 0.00 | 32 | 1009.0 |
| 20260504173518 | 70 | 245 | 6.0 | 12.0 | 0.00 | 0.00 | 0.00 | 31 | 1008.9 |
| 20260504173016 | 70 | 263 | 6.0 | 12.0 | 0.00 | 0.00 | 0.00 | 32 | 1009.1 |
| 20260504172508 | 70 | 254 | 6.0 | 11.0 | 0.00 | 0.00 | 0.00 | 33 | 1009.2 |
| 20260504172010 | 70 | 234 | 6.0 | 11.0 | 0.00 | 0.00 | 0.00 | 32 | 1009.1 |
| 20260504171506 | 70 | 245 | 6.0 | 15.0 | 0.00 | 0.00 | 0.00 | 32 | 1009.0 |
| 20260504170959 | 70 | 277 | 6.0 | 15.0 | 0.00 | 0.00 | 0.00 | 31 | 1009.0 |
| 20260504170510 | 70 | 267 | 6.0 | 13.0 | 0.00 | 0.00 | 0.00 | 34 | 1009.1 |
| 20260504160415 | 68 | 257 | 6.0 | 12.0 | 0.00 | 0.00 | 0.00 | 37 | 1009.9 |
| 20260504150838 | 69 | 246 | 4.0 | 9.0 | 0.00 | 0.00 | 0.00 | 36 | 1010.5 |
| 20260504150332 | 68 | 304 | 4.0 | 9.0 | 0.00 | 0.00 | 0.00 | 38 | 1010.5 |
| 20260504140756 | 65 | 247 | 3.0 | 8.0 | 0.00 | 0.00 | 0.00 | 41 | 1011.2 |
| 20260504140531 | 65 | 257 | 3.0 | 8.0 | 0.00 | 0.00 | 0.00 | 41 | 1011.4 |
| 20260504130709 | 61 | 285 | 5.0 | 10.0 | 0.00 | 0.00 | 0.00 | 43 | 1011.6 |
| 20260504130159 | 61 | 257 | 4.0 | 10.0 | 0.00 | 0.00 | 0.00 | 44 | 1011.6 |
| 20260504120117 | 55 | 274 | 4.0 | 10.0 | 0.00 | 0.00 | 0.00 | 51 | 1011.8 |
| 20260504110504 | 48 | 238 | 3.0 | 6.0 | 0.00 | 0.00 | 0.00 | 60 | 1012.1 |
| 20260504100409 | 47 | 274 | 2.0 | 4.0 | 0.00 | 0.00 | 0.00 | 60 | 1012.0 |